Location: Unspecified
(0.0000°N, 0.0000°E)
Time: 06:03:28
(UTC+00:00)

deb West Ford - Pass Details

Date: 26 May 2026
Orbit: 2163 x 4941 km, 86.7° (Epoch: 8 June)

Event Time Altitude Azimuth Distance (km) Brightness Sun altitude
Exits shadow 00:04:27 14° 41° (NE) 4,364 ? -68.8°
Drops below altitude 10° 00:05:53 10° 36° (NE) 4,686 ? -68.8°
Sets 00:09:42 0° 25° (NNE) 5,680 ? -68.7°
